Weather History for KJFK - September, 2013

Change the Weather History Date:

Friday, September 13, 2013

  Actual Average Record
Temperature  
Mean Temperature 70 °F 69 °F  
Max Temperature 80 °F 76 °F 89 °F (1994)
Min Temperature 59 °F 62 °F 47 °F (1963)
Degree Days  
Heating Degree Days 0 1  
Month to date heating degree days 3 3  
Since 1 July heating degree days 3 4  
Cooling Degree Days 5 5  
Month to date cooling degree days 110 82  
Year to date cooling degree days 1069 943  
Growing Degree Days 21 (Base 50)    
Moisture  
Dew Point 58 °F    
Average Humidity 66    
Maximum Humidity 90    
Minimum Humidity 42    
Precipitation  
Precipitation 0.09 in 0.11 in 1.55 in (1988)
Month to date precipitation 0.41 1.38  
Year to date precipitation 26.60 30.34  
Snow  
Snow 0.00 in 0.00 in - ()
Month to date snowfall 0.0 0.0  
Since 1 July snowfall 0.0 0.0  
Snow Depth 0.00 in    
Sea Level Pressure  
Sea Level Pressure 29.71 in    
Wind  
Wind Speed 12 mph (NW)    
Max Wind Speed 24 mph    
Max Gust Speed 31 mph    
Visibility 10 miles    
Events Rain    
T = Trace of Precipitation, MM = Missing Value Source: NWS Daily Summary

Daily Weather History Graph

Daily Weather History Graph

Search for Another Location

Airport or City:

Trip Planner

Search our weather history database for the weather conditions in past years. The results will help you decide how hot, cold, wet, or windy it might be!

Date:

Astronomy

Sep. 13, 2013 Rise Set
Actual Time 6:34 AM EDT 7:07 PM EDT
Civil Twilight 6:06 AM EDT 7:34 PM EDT
Nautical Twilight 5:34 AM EDT 8:06 PM EDT
Astronomical Twilight 5:00 AM EDT 8:40 PM EDT
Moon 2:55 PM EDT (9/13) No Moon Set
Length of Visible Light 13h 27m
Length of Day
12h 33m
First Quarter, 61% of the Moon is Illuminated
Sep 13
First Quarter
Sep 19
Full
Sep 26
Last Quarter
Oct 4
New
Oct 11
First Quarter

Hourly Weather History & Observations

Time (EDT) Temp. Dew Point Humidity Pressure Visibility Wind Dir Wind Speed Gust Speed Precip Events Conditions
12:51 AM 71.1 °F 68.0 °F 90% 29.70 in 10.0 mi West 8.1 mph - 0.00 in   Overcast
1:51 AM 71.1 °F 66.9 °F 87% 29.67 in 10.0 mi West 8.1 mph - N/A   Overcast
2:51 AM 71.1 °F 66.0 °F 84% 29.66 in 10.0 mi WNW 5.8 mph - N/A   Overcast
3:51 AM 70.0 °F 66.0 °F 87% 29.66 in 10.0 mi NW 9.2 mph - 0.01 in Rain Light Rain
4:51 AM 69.1 °F 66.0 °F 90% 29.66 in 5.0 mi NNW 6.9 mph - 0.08 in Rain Light Rain
5:51 AM 69.1 °F 64.9 °F 87% 29.66 in 10.0 mi WNW 3.5 mph - 0.00 in   Overcast
6:51 AM 68.0 °F 64.9 °F 90% 29.67 in 10.0 mi West 6.9 mph - N/A   Mostly Cloudy
7:51 AM 70.0 °F 66.0 °F 87% 29.68 in 10.0 mi West 6.9 mph - N/A   Mostly Cloudy
8:51 AM 73.0 °F 64.0 °F 73% 29.68 in 10.0 mi NW 10.4 mph - N/A   Mostly Cloudy
9:51 AM 73.9 °F 60.1 °F 62% 29.68 in 10.0 mi NNW 10.4 mph 17.3 mph N/A   Mostly Cloudy
10:51 AM 75.0 °F 59.0 °F 57% 29.68 in 10.0 mi NW 13.8 mph - N/A   Mostly Cloudy
11:51 AM 73.9 °F 55.9 °F 53% 29.69 in 10.0 mi NW 15.0 mph - N/A   Mostly Cloudy
12:51 PM 73.0 °F 55.9 °F 55% 29.69 in 10.0 mi NW 15.0 mph - N/A   Mostly Cloudy
1:51 PM 75.9 °F 57.0 °F 52% 29.67 in 10.0 mi NW 12.7 mph - 0.00 in   Mostly Cloudy
2:51 PM 78.1 °F 55.0 °F 45% 29.67 in 10.0 mi WNW 15.0 mph 20.7 mph N/A   Mostly Cloudy
3:51 PM 78.1 °F 53.1 °F 42% 29.67 in 10.0 mi West 6.9 mph - N/A   Scattered Clouds
4:51 PM 75.9 °F 54.0 °F 46% 29.68 in 10.0 mi NW 19.6 mph 25.3 mph N/A   Scattered Clouds
5:51 PM 75.9 °F 53.1 °F 45% 29.71 in 10.0 mi NNW 16.1 mph - N/A   Mostly Cloudy
6:24 PM 71.6 °F 55.4 °F 57% 29.73 in 10.0 mi North 17.3 mph 26.5 mph N/A   Mostly Cloudy
6:51 PM 71.1 °F 54.0 °F 55% 29.74 in 10.0 mi North 17.3 mph - N/A   Mostly Cloudy
7:51 PM 69.1 °F 50.0 °F 51% 29.78 in 10.0 mi NNW 20.7 mph 26.5 mph N/A   Scattered Clouds
8:51 PM 66.9 °F 48.9 °F 52% 29.80 in 10.0 mi NW 15.0 mph 23.0 mph N/A   Partly Cloudy
9:51 PM 64.0 °F 48.0 °F 56% 29.83 in 10.0 mi NNW 18.4 mph - N/A   Partly Cloudy
10:51 PM 62.1 °F 48.0 °F 60% 29.85 in 10.0 mi NNW 15.0 mph - N/A   Partly Cloudy
11:51 PM 61.0 °F 48.0 °F 62% 29.86 in 10.0 mi NW 13.8 mph - N/A   Partly Cloudy